Old Res Weather

Lexington, Massachusetts, USA

55°F
2/28/2024 7:44pm 
  • Lexington Conditions: Light rain, Mist, Overcast
  • Temperature: 54.9°F / 12.7°CColder 1.6°F than last hour.
  • Dew Point: 51.6°FDecreased 1.3°Fsince last hour.
  • Relative Humidity: 89%Increased 1.0% since last hour.
  • Wind: Calm, 10-min avg: Calm, gust: None
  • Barometer: 29.47 inFalling 0.06  inHg/hr Falling Rapidly
  • Visibility: 5 miles
  • Rain Today: 0.30 in
  • UV Index: $VPuv None
  •   
Southeast Middlesex County, MA - Wind Advisory
 - SEE ALL NEARBY ALERTS -

Regional Weather Roundup
for Boston, MA

        
000
ASUS41 KBOX 290010
RWRBOX

REGIONAL WEATHER ROUNDUP
NATIONAL WEATHER SERVICE BOSTON/NORTON MA
700 PM EST WED FEB 28 2024

NOTE:  "FAIR" INDICATES FEW OR NO CLOUDS BELOW 12,000 FEET WITH NO 
SIGNIFICANT WEATHER AND/OR OBSTRUCTIONS TO VISIBILITY.

MAZALL-290100-
EASTERN MASSACHUSETTS
  
CITY           SKY/WX    TMP DP  RH WIND       PRES   REMARKS
BOSTON         CLOUDY    53  51  93 S21G38    29.53F                  
6HR MIN TEMP:  53; 6HR MAX TEMP:  55; 6HR PCP: TRACE;                

BEVERLY        CLOUDY    54  50  86 S16G30    29.51F                  
LAWRENCE       LGT RAIN  57  52  83 S14G24    29.50F                  
BEDFORD        LGT RAIN  55  52  89 S18G28    29.49F FOG              
NORWOOD        CLOUDY    56  50  80 S15G32    29.55F                  
MARSHFIELD     CLOUDY    55  50  82 SW23G39   29.56F                  
PLYMOUTH       CLOUDY    54  50  86 SW20G35   29.59F                  
TAUNTON        CLOUDY    55  48  77 SW13G32   29.60F                  
NEW BEDFORD    LGT RAIN  52  49  89 SW23G37   29.61F                  
$$

MAZALL-290100-
CAPE COD AND THE ISLANDS
  
CITY           SKY/WX    TMP DP  RH WIND       PRES   REMARKS
FALMOUTH       CLOUDY    55  52  88 SW35G52   29.64F                  
HYANNIS        LGT RAIN  49  48  97 SW18G32   29.64F VSB 1            
CHATHAM        LGT RAIN  52  29  41 S16G40    29.68F                  
PROVINCETOWN   CLOUDY    49  49 100 S20G30    29.62F FOG              
NANTUCKET      CLOUDY    50  50 100 S25G37    29.70F FOG              
MARTHAS VNYRD  LGT RAIN  51  49  92 SW24G35   29.66F                  
$$
 
MAZALL-290100-
CENTRAL AND WESTERN MASSACHUSETTS
  
CITY           SKY/WX    TMP DP  RH WIND       PRES   REMARKS
WORCESTER      LGT RAIN  53  50  89 S17G26    29.49F                  
6HR MIN TEMP:  53; 6HR MAX TEMP:  55; 6HR PCP:  0.10;                

FITCHBURG      LGT RAIN  56  51  84 S13G22    29.50F                  
ORANGE         CLOUDY    53  50  89 S16G26    29.46F                  
SPRINGFIELD    CLOUDY    54  51  91 S17G25    29.41F FOG              
WESTFIELD      CLOUDY    53  51  93 SE12G25   29.42F                  
NORTH ADAMS    CLOUDY    60  52  74 SW16G30   29.41S                  
PITTSFIELD     CLOUDY    54  51  90 S16G24    29.40F                  
$$
 
RIZALL-290100-
RHODE ISLAND
  
CITY           SKY/WX    TMP DP  RH WIND       PRES   REMARKS
PROVIDENCE     CLOUDY    52  50  93 S21G32    29.60F                  
6HR MIN TEMP:  52; 6HR MAX TEMP:  55; 6HR PCP: TRACE;                

NEWPORT        RAIN      49  47  93 SW14G24   29.62F FOG              
BLOCK ISLAND   LGT RAIN  49  47  93 SW29G41   29.63F FOG              
SMITHFIELD     LGT RAIN  52  51  97 SW14G25   29.57F                  
WESTERLY       LGT RAIN  50  47  89 SW18G33   29.61F FOG              
$$
 
CTZALL-290100-
CONNECTICUT
  
CITY           SKY/WX    TMP DP  RH WIND       PRES   REMARKS
BRADLEY INTL   CLOUDY    53  50  89 S18       29.45F                  
6HR MIN TEMP:  53; 6HR MAX TEMP:  56; 6HR PCP:  0.16;                

HARTFORD       CLOUDY    52  50  93 S14G24    29.47F                  
PLAINVILLE     CLOUDY    51  51 100 S10G16    29.49F                  
BRIDGEPORT     PTCLDY    49  47  93 S12G23    29.51F                  
DANBURY        MOCLDY    55  51  86 SW12G20   29.53F                  
GROTON         LGT RAIN  49  48  97 S18G24    29.58F                  
NEW HAVEN      PTCLDY    49  46  90 S10       29.53F FOG              
CHESTER        CLOUDY    50  50 100 S18       29.51F FOG              
MERIDEN        CLOUDY    50  47  89 S13       29.50F                  
WILLIMANTIC    LGT RAIN  52  50  93 S12       29.55F                  
OXFORD         CLOUDY    50  50 100 S13G20    29.51F FOG              
$$

MEZ002-015-021-024-NHZ003-005-008-011-012-014-VTZ005-008-290100-
NORTHERN NEW ENGLAND
  
CITY           SKY/WX    TMP DP  RH WIND       PRES   REMARKS
PORTLAND ME    LGT RAIN  46  46 100 S17G31    29.47F FOG              
6HR MIN TEMP:  45; 6HR MAX TEMP:  47; 6HR PCP:  0.03;                

BANGOR ME      LGT RAIN  48  47  96 S22G41    29.48F FOG              
CONCORD NH     CLOUDY    54  53  97 VRB7G21   29.43F                  
MANCHESTER NH  LGT RAIN  56  52  86 S14       29.45F                  
NASHUA NH      LGT RAIN  55  50  83 VRB6      29.48F                  
PORTSMOUTH NH  LGT RAIN  57  52  82 S12       29.46F                  
JAFFREY NH     LGT RAIN  54  50  86 S10G25    29.44F                  
KEENE NH       LGT RAIN  54  51  90 S12G18    29.42F                  
BURLINGTON VT  CLOUDY    59  52  77 SW15G33   29.23F                  
MT. WASHINGTON LGT RAIN  37  37 100 SW45G60     N/A  VSB 0   WCI  23  
$$

NYZ052-076-290100-
EASTERN NEW YORK
  
CITY           SKY/WX    TMP DP  RH WIND       PRES   REMARKS
ALBANY         RAIN      53  45  74 W32G51    29.46R                  
6HR MIN TEMP:  57; 6HR MAX TEMP:  59; 6HR PCP: TRACE;                

NEW YORK CITY  MOCLDY    55  50  83 S9        29.54S                  
6HR MIN TEMP:  51; 6HR MAX TEMP:  55; 6HR PCP:  0.09;                

$$
 
ANZALL-290100-
MARINE OBSERVATIONS
  
STATION/POSITION TIME  TEMP    WIND        PRES    VSBY  WAVE
                       AIR SEA DIR/SP/G                  HT/PER
                 (UTC) (F)     (DEG/KT/KT) (MB)    (MI)  (FT/S)
BOSTON BUOY      2350   50 40  200/ 21/ 31 1000.8F         5/ 5
BUZZARDS BAY     2300   50     200/ 31/ 35 1004.4F
NANTUCKET SOUND  2350   47 38  190/ 21/ 29 1004.1F         4/ 5
MASS BAY-STELLWA 2204   46 40  180/ 19/ 25 1001.0F  1 7/8  5/ 6
ISLE OF SHOALS   2300   46     170/ 21/ 23  999.2R
S OF BLOCK IS    2356      42                N/A          12/11
$$

......................KEY.........................
  SKY/WX - SKY CONDITION/PRESENT WEATHER
  TMP    - TEMPERATURE IN FAHRENHEIT
  DWPT   - DEWPOINT IN FAHRENHEIT
  RH     - RELATIVE HUMIDITY IN PERCENT
  WIND   - DIRECTION AND SPEED IN MPH
  PRES   - MEAN SEA LEVEL PRESSURE IN INCHES OF HG
  WCI    - WIND CHILL INDEX
  VSB    - VISIBILITY IN MILES
  HX     - HEAT INDEX
  TC     - TEMPERATURE IN CELSIUS
  VRB    - VARIABLE WIND DIRECTION
  N/A    - NOT AVAILABLE
  
      

Other recent Regional Weather Roundups

Wed Feb 28, 6:10pm EST

Wed Feb 28, 5:10pm EST

Wed Feb 28, 4:10pm EST

Wed Feb 28, 3:10pm EST

Wed Feb 28, 2:10pm EST

Wed Feb 28, 1:10pm EST

Wed Feb 28, 12:10pm EST

Wed Feb 28, 11:10am EST

Wed Feb 28, 10:10am EST

Wed Feb 28, 9:10am EST

Wed Feb 28, 8:10am EST

Wed Feb 28, 7:10am EST

Wed Feb 28, 6:10am EST

Wed Feb 28, 5:10am EST

Wed Feb 28, 4:10am EST

Wed Feb 28, 3:10am EST

Wed Feb 28, 2:10am EST

Wed Feb 28, 1:10am EST

Wed Feb 28, 12:10am EST

Tue Feb 27, 11:10pm EST

Tue Feb 27, 10:10pm EST

Tue Feb 27, 9:10pm EST

Tue Feb 27, 8:10pm EST

Tue Feb 27, 7:10pm EST

Tue Feb 27, 6:10pm EST

Tue Feb 27, 5:10pm EST

Tue Feb 27, 4:10pm EST

Tue Feb 27, 3:10pm EST

Tue Feb 27, 2:10pm EST

Tue Feb 27, 1:10pm EST

Tue Feb 27, 12:10pm EST

Tue Feb 27, 11:10am EST

Tue Feb 27, 10:10am EST

Tue Feb 27, 9:10am EST

Tue Feb 27, 8:10am EST

Tue Feb 27, 7:10am EST

Tue Feb 27, 6:10am EST

Tue Feb 27, 5:10am EST

Tue Feb 27, 4:10am EST

Tue Feb 27, 3:10am EST

Tue Feb 27, 2:10am EST

Tue Feb 27, 1:10am EST

Tue Feb 27, 12:10am EST

Mon Feb 26, 11:10pm EST

Mon Feb 26, 10:10pm EST

Mon Feb 26, 9:10pm EST

Mon Feb 26, 8:10pm EST

Mon Feb 26, 7:10pm EST

Mon Feb 26, 6:10pm EST

Mon Feb 26, 5:10pm EST

Mon Feb 26, 4:10pm EST

Mon Feb 26, 3:10pm EST

Mon Feb 26, 2:10pm EST

Mon Feb 26, 1:10pm EST

Mon Feb 26, 12:10pm EST

Mon Feb 26, 11:10am EST

Mon Feb 26, 10:10am EST

Mon Feb 26, 9:10am EST

Mon Feb 26, 8:10am EST

Mon Feb 26, 7:10am EST

Mon Feb 26, 6:10am EST

Mon Feb 26, 5:10am EST

Mon Feb 26, 4:10am EST

Mon Feb 26, 3:10am EST

Mon Feb 26, 2:10am EST

Mon Feb 26, 1:10am EST

Mon Feb 26, 12:10am EST

Sun Feb 25, 11:10pm EST

Sun Feb 25, 10:10pm EST

Sun Feb 25, 9:10pm EST

Sun Feb 25, 8:10pm EST

Sun Feb 25, 7:10pm EST

Sun Feb 25, 6:10pm EST

Sun Feb 25, 5:10pm EST

Sun Feb 25, 4:10pm EST

Sun Feb 25, 3:10pm EST

Sun Feb 25, 2:10pm EST

Sun Feb 25, 1:10pm EST

Sun Feb 25, 12:10pm EST

Sun Feb 25, 11:10am EST

Sun Feb 25, 10:10am EST

Sun Feb 25, 9:10am EST

Sun Feb 25, 8:10am EST

Sun Feb 25, 7:10am EST

Sun Feb 25, 6:10am EST

Sun Feb 25, 5:10am EST

Sun Feb 25, 4:10am EST

Sun Feb 25, 3:10am EST

Sun Feb 25, 2:10am EST

Sun Feb 25, 1:10am EST

Sun Feb 25, 12:10am EST

Sat Feb 24, 11:10pm EST

Sat Feb 24, 10:10pm EST

Sat Feb 24, 9:10pm EST

Sat Feb 24, 8:10pm EST

Sat Feb 24, 7:10pm EST

Sat Feb 24, 6:10pm EST

Sat Feb 24, 5:10pm EST

Sat Feb 24, 4:10pm EST

Sat Feb 24, 3:10pm EST

Sat Feb 24, 2:10pm EST

Sat Feb 24, 1:10pm EST

Sat Feb 24, 12:10pm EST

Sat Feb 24, 11:10am EST

Sat Feb 24, 10:10am EST

Sat Feb 24, 9:10am EST

Sat Feb 24, 8:10am EST

Sat Feb 24, 7:10am EST

Sat Feb 24, 6:10am EST

Sat Feb 24, 5:10am EST

Sat Feb 24, 4:10am EST

Sat Feb 24, 3:10am EST

Sat Feb 24, 2:10am EST

Sat Feb 24, 1:10am EST

Sat Feb 24, 12:10am EST

Fri Feb 23, 11:10pm EST

Fri Feb 23, 10:10pm EST

Fri Feb 23, 9:10pm EST

Fri Feb 23, 8:10pm EST

Fri Feb 23, 7:10pm EST

Fri Feb 23, 6:10pm EST

Fri Feb 23, 5:10pm EST

Fri Feb 23, 4:10pm EST

Fri Feb 23, 3:10pm EST

Fri Feb 23, 2:10pm EST

Fri Feb 23, 1:10pm EST

Fri Feb 23, 12:10pm EST

Fri Feb 23, 11:10am EST

Fri Feb 23, 10:10am EST

Fri Feb 23, 9:10am EST

Fri Feb 23, 8:10am EST

Fri Feb 23, 7:10am EST

Fri Feb 23, 6:10am EST

Fri Feb 23, 5:10am EST

Fri Feb 23, 4:10am EST

Fri Feb 23, 3:10am EST

Fri Feb 23, 2:10am EST

Fri Feb 23, 1:10am EST

Fri Feb 23, 12:10am EST

Thu Feb 22, 11:10pm EST

Thu Feb 22, 10:10pm EST

Thu Feb 22, 9:10pm EST

Thu Feb 22, 8:10pm EST

Thu Feb 22, 7:10pm EST

Thu Feb 22, 6:10pm EST

Thu Feb 22, 5:10pm EST

Thu Feb 22, 4:10pm EST

Thu Feb 22, 3:10pm EST

Thu Feb 22, 2:10pm EST

Thu Feb 22, 1:10pm EST

Thu Feb 22, 11:10am EST

Thu Feb 22, 11:10am EST

Thu Feb 22, 10:10am EST

Thu Feb 22, 9:10am EST

Thu Feb 22, 8:10am EST

Thu Feb 22, 7:10am EST

Thu Feb 22, 6:10am EST

Thu Feb 22, 5:10am EST

Thu Feb 22, 4:10am EST

Thu Feb 22, 3:10am EST

Thu Feb 22, 2:10am EST

Thu Feb 22, 1:10am EST

Thu Feb 22, 12:10am EST

Wed Feb 21, 11:10pm EST

Wed Feb 21, 10:10pm EST

Wed Feb 21, 9:10pm EST

Wed Feb 21, 8:10pm EST